Regional Weather Roundup
Issued by NWS Memphis, TN

Current Version | Previous Version | Text Only | Print | Product List | Glossary On
Versions: 1 2 3 4 5 6 7 8 9 10 11 12 13 14 15 16 17 18 19 20 21 22 23 24 25 26 27 28 29 30 31 32 33 34 35 36 37 38 39 40 41 42 43 44 45 46 47 48 49 50
000
ASUS44 KMEG 220400
RWRMEG
MEMPHIS CWA HOURLY WEATHER ROUNDUP
NATIONAL WEATHER SERVICE MEMPHIS TN
1000 PM CST TUE FEB 21 2017

...WEST TENNESSEE...

CITY           SKY/WX    TMP DP  RH WIND       PRES   REMARKS
MEMPHIS INTL   LGT RAIN  61  60  97 E6        29.89S
NWS MEMPHIS      N/A     60 N/A N/A MISG        N/A
JACKSON        CLOUDY    59  59 100 NE5       29.91S
UNION CITY     CLOUDY   N/A N/A N/A CALM      29.91S
PARIS          CLOUDY    57  55  94 SE5       29.93R


...EASTERN ARKANSAS...

CITY           SKY/WX    TMP DP  RH WIND       PRES   REMARKS
JONESBORO      CLOUDY    60  58  92 NE6       29.89S
WEST MEMPHIS   CLOUDY    61  59  93 E6        29.88S
BATESVILLE     CLOUDY    57  55  94 CALM      29.90F
NEWPORT        CLOUDY    59  58  96 NE8       29.89
WALNUT RIDGE   MOCLDY    59  55  88 NE6       29.90S
BLYTHEVILLE    CLOUDY    60  59  96 SE6       29.92R
SEARCY         CLEAR     58  58 100 NW6       29.90R FOG
STUTTGART      CLOUDY    57  50  77 N3        29.88F
PINE BLUFF     CLOUDY    58  58 100 SW3       29.87R
MONTICELLO     CLOUDY    58  56  93 CALM      29.87R


...NORTH MISSISSIPPI...

CITY           SKY/WX    TMP DP  RH WIND       PRES   REMARKS
TUPELO         CLOUDY    60  57  89 E5        29.88F
OXFORD         PTCLDY    57  55  94 E3        29.90S
BATESVILLE     CLOUDY    58  57  97 CALM      29.89S FOG
TUNICA         CLOUDY    59  59 100 E6        29.88F
GREENWOOD      CLEAR     56  53  90 E5        29.87S
COLUMBUS       LGT RAIN  59  59  99 E5        29.87F FOG
GOLDEN TRIANGL CLOUDY    61  55  82 SE7       29.84S


...SOUTHEAST MISSOURI...

CITY           SKY/WX    TMP DP  RH WIND       PRES   REMARKS
KENNETT        CLOUDY    59  59 100 E3        29.91R FOG
WEST PLAINS    CLOUDY    54  53  97 N3        29.93S FOG
POPLAR BLUFF   CLOUDY    59  58  96 N5        29.90F
CAPE GIRARDEAU CLOUDY    58  55  90 S7        29.91S


...NORTHWEST ALABAMA...

CITY           SKY/WX    TMP DP  RH WIND       PRES   REMARKS
MUSCLE SHOALS  CLOUDY    58  55  90 NE3       29.93F


...MIDDLE TENNESSEE...

CITY           SKY/WX    TMP DP  RH WIND       PRES   REMARKS
NASHVILLE      MOCLDY    58  56  93 CALM      29.94F
CLARKSVILLE    CLOUDY    58  55  90 SE3       29.93F
COLUMBIA       CLOUDY   N/A N/A N/A CALM      29.92S


...WESTERN KENTUCKY...

CITY           SKY/WX    TMP DP  RH WIND       PRES   REMARKS
PADUCAH        CLOUDY    58  54  86 CALM      29.92R
FORT CAMPBELL  MOCLDY    59  59 100 CALM      29.92F


...CENTRAL ARKANSAS...

CITY           SKY/WX    TMP DP  RH WIND       PRES   REMARKS
LITTLE ROCK    CLOUDY    57  57 100 N6        29.88S


SKY/WX REPORTED AS FAIR MEANS FEW OR NO CLOUDS BELOW
12 THOUSAND FEET.




USA.gov is the U.S. government's official web portal to all federal, state and local government web resources and services.